{"data":{"norad_id":48226,"intl_designator":"2021-031S","name":"ONEWEB-0205","alt_names":[],"object_type":"PAYLOAD","status":"ACTIVE","operator":null,"country":"UK","launch_date":"2021-04-25","launch_site_code":"VOSTO","launch_vehicle":null,"mission":null,"orbit_class":"UNKNOWN","rcs_meters":null,"size_class":null,"mass_kg":null,"dimensions":null,"purposes":["comms"],"wikipedia_slug":null,"has_3d_model":false,"image_url":null,"decayed_at":null,"tle_current":{"epoch":"2026-09-19T23:33:42.107904Z","epoch_age_seconds":66800,"freshness":"FRESH","line1":"1 48226U 21031S   26262.98173736 -.00000125  00000+0 -37285-3 0  9998","line2":"2 48226  87.8897 270.7959 0001639  92.1076 268.0242 13.14503949260724","mean_motion":13.14503949,"eccentricity":0.0001639,"inclination_deg":87.8897,"raan_deg":270.7959,"arg_perigee_deg":92.1076,"mean_anomaly_deg":268.0242,"bstar":-0.00037285,"rev_number":26072,"period_min":109.54702730984,"perigee_km":1204.5429302973,"apogee_km":1207.0289402355,"semimajor_km":7583.9229352664,"source":"CELESTRAK","updated_at":"2026-09-20T09:00:44.595460Z"}}}